W0QQ Weather Reports


Display with metric or nautical units.
time (UTC)temp
F
wind
direction
speed
MPH
gust
MPH
rain 1hr
in
rain 24hr
in
rain mn
in
humidity
%
barometer
mb
20260510164623 65 55 5.0 14.0 0.00 0.00 0.00 37 1021.6
20260510163038 64 48 6.0 10.0 0.00 0.00 0.00 41 1021.4
20260510161627 62 11 8.0 13.0 0.00 0.00 0.00 41 1021.5
20260510160044 62 11 4.0 7.0 0.00 0.00 0.00 43 1021.7
20260510154637 61 11 4.0 11.0 0.00 0.00 0.00 42 1021.7
20260510153055 61 11 4.0 13.0 0.00 0.00 0.00 41 1021.5
20260510151506 60 72 6.0 12.0 0.00 0.00 0.00 44 1021.1
20260510150047 60 74 4.0 10.0 0.00 0.00 0.00 44 1021.0
20260510144515 60 11 4.0 11.0 0.00 0.00 0.00 46 1021.1
20260510143059 58 11 4.0 11.0 0.00 0.00 0.00 47 1021.1
20260510141512 57 89 3.0 9.0 0.00 0.00 0.00 50 1021.1
20260510140059 57 11 4.0 9.0 0.00 0.00 0.00 49 1021.1
20260510134519 56 51 3.0 8.0 0.00 0.00 0.00 54 1020.9
20260510133105 56 89 2.0 8.0 0.00 0.00 0.00 56 1020.7
20260510131526 55 62 2.0 6.0 0.00 0.00 0.00 53 1020.6
20260510130108 55 73 2.0 10.0 0.00 0.00 0.00 53 1020.3
20260510124521 55 29 5.0 11.0 0.00 0.00 0.00 53 1020.2
20260510123105 55 62 3.0 8.0 0.00 0.00 0.00 55 1019.6
20260510121523 55 55 2.0 8.0 0.00 0.00 0.00 54 1019.3
20260510120010 55 11 2.0 4.0 0.00 0.00 0.00 54 1018.9
20260510114607 56 73 2.0 10.0 0.00 0.00 0.00 51 1018.5
20260510113019 56 84 4.0 10.0 0.00 0.00 0.00 50 1018.3
20260510111608 57 11 4.0 10.0 0.00 0.00 0.00 52 1018.3
20260510110019 57 72 4.0 11.0 0.00 0.00 0.00 51 1018.0
20260510104619 57 64 4.0 10.0 0.00 0.00 0.00 51 1018.2
20260510103008 58 11 3.0 9.0 0.00 0.00 0.00 49 1017.8
20260510101549 58 56 6.0 15.0 0.00 0.00 0.00 49 1017.5
20260510100004 58 11 4.0 11.0 0.00 0.00 0.00 54 1017.2
20260510094551 58 11 3.0 9.0 0.00 0.00 0.00 57 1017.1
20260510093001 59 80 4.0 10.0 0.00 0.00 0.00 58 1017.1
20260510091545 59 11 4.0 10.0 0.00 0.00 0.00 60 1016.8
20260510090003 59 76 4.0 10.0 0.00 0.00 0.00 60 1016.5
20260510084557 60 81 5.0 10.0 0.00 0.00 0.00 60 1016.5
20260510083012 60 58 3.0 9.0 0.00 0.00 0.00 61 1016.3
20260510081600 61 47 3.0 11.0 0.00 0.00 0.00 60 1016.0
20260510080017 61 38 4.0 9.0 0.00 0.00 0.00 61 1015.8
20260510074625 61 79 2.0 9.0 0.00 0.00 0.00 61 1015.3
20260510073029 61 11 2.0 6.0 0.00 0.00 0.00 64 1015.5
20260510071615 62 43 3.0 6.0 0.00 0.00 0.00 64 1015.2
20260510070040 62 78 3.0 5.0 0.00 0.00 0.00 62 1014.9
20260510064617 63 91 2.0 4.0 0.00 0.00 0.00 61 1014.7
20260510063031 63 91 1.0 4.0 0.00 0.00 0.00 61 1014.7
20260510061620 64 108 1.0 4.0 0.00 0.00 0.00 58 1014.7
20260510060053 65 106 1.0 4.0 0.00 0.00 0.00 57 1014.5
20260510054503 66 106 1.0 6.0 0.00 0.00 0.00 57 1014.4
20260510053057 66 11 1.0 4.0 0.00 0.00 0.00 56 1014.4
20260510051516 66 103 1.0 8.0 0.00 0.00 0.00 56 1014.3
20260510050100 67 89 4.0 10.0 0.00 0.00 0.00 55 1013.4
20260510044521 67 70 3.0 8.0 0.00 0.00 0.00 57 1013.2
20260510043106 67 68 4.0 8.0 0.00 0.00 0.00 59 1012.7
20260510041510 67 46 3.0 6.0 0.00 0.00 0.00 59 1012.3
20260510040111 67 68 3.0 5.0 0.00 0.00 0.00 57 1012.2
20260510034526 67 11 1.0 3.0 0.00 0.00 0.00 59 1011.8
20260510033119 67 11 1.0 4.0 0.00 0.00 0.00 58 1011.5
20260510031526 68 11 0.0 3.0 0.00 0.00 0.00 62 1011.8
20260510030116 68 216 0.0 6.0 0.00 0.00 0.00 59 1011.5
20260510024541 69 77 0.0 3.0 0.00 0.00 0.00 58 1011.1
20260510023128 70 57 0.0 3.0 0.00 0.00 0.00 55 1011.5
20260510021539 70 56 1.0 3.0 0.00 0.00 0.00 53 1010.5
20260510020121 71 55 2.0 4.0 0.00 0.00 0.00 52 1010.1
20260510014541 71 55 2.0 5.0 0.00 0.00 0.00 51 1009.9
20260510013134 72 46 2.0 9.0 0.00 0.00 0.00 50 1010.1
20260510011546 72 11 2.0 10.0 0.00 0.00 0.00 51 1009.6
20260510010004 73 57 1.0 5.0 0.00 0.00 0.00 49 1009.3
20260510004559 74 56 0.0 4.0 0.00 0.00 0.00 49 1009.2
20260510003010 75 53 2.0 8.0 0.00 0.00 0.00 47 1009.0
20260510001554 75 61 5.0 14.0 0.00 0.00 0.00 46 1008.8
20260510000042 76 22 7.0 10.0 0.00 0.00 0.00 45 1008.7
20260509234624 77 27 2.0 10.0 0.00 0.00 0.00 43 1008.6
20260509233038 78 29 6.0 12.0 0.00 0.00 0.00 42 1008.3
20260509231624 79 11 1.0 11.0 0.00 0.00 0.00 41 1008.0
20260509230034 79 46 4.0 17.0 0.00 0.00 0.00 37 1007.9
20260509224624 80 317 0.0 9.0 0.00 0.00 0.00 39 1007.8
20260509223039 81 261 2.0 8.0 0.00 0.00 0.00 37 1007.6
20260509221630 82 256 3.0 10.0 0.00 0.00 0.00 37 1007.6
20260509220033 83 309 5.0 11.0 0.00 0.00 0.00 34 1007.4
20260509214619 83 245 5.0 14.0 0.00 0.00 0.00 34 1007.3
20260509213028 84 245 5.0 16.0 0.00 0.00 0.00 34 1007.2
20260509211614 86 290 6.0 17.0 0.00 0.00 0.00 33 1007.2
20260509210030 86 266 10.0 18.0 0.00 0.00 0.00 30 1007.3
20260509204632 86 11 3.0 14.0 0.00 0.00 0.00 34 1007.5
20260509203049 86 251 7.0 16.0 0.00 0.00 0.00 31 1007.6
20260509201635 86 11 7.0 17.0 0.00 0.00 0.00 34 1007.7
20260509200058 85 280 1.0 16.0 0.00 0.00 0.00 44 1007.8
20260509194517 84 276 7.0 16.0 0.00 0.00 0.00 37 1008.0
20260509193101 85 244 6.0 13.0 0.00 0.00 0.00 38 1008.0
20260509191521 85 249 6.0 14.0 0.00 0.00 0.00 41 1008.2
20260509190118 85 245 4.0 16.0 0.00 0.00 0.00 44 1008.4
20260509184527 84 11 6.0 13.0 0.00 0.00 0.00 39 1008.5
20260509183103 84 303 3.0 13.0 0.00 0.00 0.00 44 1008.6
20260509181511 83 258 5.0 15.0 0.00 0.00 0.00 41 1008.8
20260509180103 83 205 4.0 13.0 0.00 0.00 0.00 46 1009.0
20260509174522 82 275 5.0 13.0 0.00 0.00 0.00 44 1009.2
20260509173110 81 242 6.0 15.0 0.00 0.00 0.00 47 1009.4
20260509171526 80 245 4.0 12.0 0.00 0.00 0.00 51 1009.6
20260509170111 79 240 3.0 10.0 0.00 0.00 0.00 52 1009.8